Terug naar catalogus

STARLINK-36714

ActiefCommunicatieVLEO
NORAD 67924·PAYLOAD·🇺🇸 United States

Gelanceerd Feb 22, 2026 vanaf Vandenberg Space Force Base

Loading…

Volgende Passages (komende 24 uur)

TLE

VersSource: CelesTrak SupGP

Epoch: Sep 14, 2026, 22:47 UTC

1 67924C 26036W   26257.94979167  .00036232  00000+0  13125-2 0  2575
2 67924  43.0006 256.5558 0001440 263.5192 160.5097 15.27557325    17

Volg STARLINK-36714 in realtime met AllMySat

Download on the App Store